| time (UTC) | temp F | wind direction | speed MPH | gust MPH | rain 1hr in | rain 24hr in | rain mn in | humidity % | barometer mb |
| 20260506230915 | 46 | 158 | 1.0 | 3.0 | 0.00 | 0.53 | 0.53 | 71 | 1009.7 |
| 20260506225956 | 46 | 0.0 | 0.0 | 0.00 | 0.53 | 0.53 | 72 | 1009.9 | |
| 20260506224936 | 46 | 0.0 | 0.0 | 0.00 | 0.53 | 0.53 | 72 | 1009.6 | |
| 20260506223917 | 46 | 0.0 | 0.0 | 0.00 | 0.53 | 0.53 | 72 | 1009.9 | |
| 20260506222915 | 46 | 0.0 | 1.0 | 0.00 | 0.53 | 0.53 | 72 | 1010.0 | |
| 20260506221915 | 46 | 158 | 1.0 | 2.0 | 0.00 | 0.53 | 0.53 | 73 | 1010.0 |
| 20260506220915 | 46 | 0.0 | 1.0 | 0.00 | 0.53 | 0.53 | 73 | 1010.0 | |
| 20260506215915 | 46 | 0.0 | 2.0 | 0.00 | 0.53 | 0.53 | 73 | 1010.0 | |
| 20260506214915 | 46 | 0.0 | 3.0 | 0.00 | 0.53 | 0.53 | 72 | 1009.9 | |
| 20260506213915 | 45 | 338 | 2.0 | 3.0 | 0.00 | 0.53 | 0.53 | 72 | 1009.8 |
| 20260506212915 | 45 | 225 | 2.0 | 4.0 | 0.00 | 0.53 | 0.53 | 72 | 1009.8 |
| 20260506211935 | 46 | 0.0 | 2.0 | 0.00 | 0.53 | 0.53 | 72 | 1009.8 | |
| 20260506210915 | 46 | 338 | 3.0 | 6.0 | 0.00 | 0.53 | 0.53 | 72 | 1009.7 |
| 20260506205918 | 45 | 338 | 3.0 | 4.0 | 0.01 | 0.53 | 0.53 | 73 | 1009.6 |
| 20260506204917 | 45 | 180 | 2.0 | 3.0 | 0.01 | 0.53 | 0.53 | 73 | 1010.0 |
| 20260506203917 | 45 | 0.0 | 1.0 | 0.01 | 0.53 | 0.53 | 74 | 1010.1 | |
| 20260506202917 | 45 | 338 | 2.0 | 4.0 | 0.01 | 0.53 | 0.53 | 74 | 1010.0 |
| 20260506201938 | 45 | 0.0 | 0.0 | 0.01 | 0.53 | 0.53 | 74 | 1009.9 | |
| 20260506200917 | 45 | 0.0 | 1.0 | 0.02 | 0.53 | 0.53 | 74 | 1009.9 | |
| 20260506195917 | 45 | 315 | 2.0 | 4.0 | 0.01 | 0.53 | 0.52 | 74 | 1009.9 |
| 20260506194917 | 45 | 338 | 1.0 | 4.0 | 0.01 | 0.55 | 0.52 | 74 | 1009.9 |
| 20260506193917 | 45 | 248 | 4.0 | 6.0 | 0.01 | 0.55 | 0.52 | 74 | 1009.8 |
| 20260506192918 | 45 | 203 | 1.0 | 6.0 | 0.01 | 0.55 | 0.52 | 74 | 1009.8 |
| 20260506191915 | 45 | 225 | 3.0 | 5.0 | 0.01 | 0.55 | 0.52 | 75 | 1009.7 |
| 20260506190917 | 45 | 180 | 1.0 | 4.0 | 0.00 | 0.54 | 0.51 | 75 | 1009.6 |
| 20260506185958 | 45 | 225 | 1.0 | 2.0 | 0.00 | 0.54 | 0.51 | 75 | 1009.7 |
| 20260506184917 | 45 | 180 | 1.0 | 2.0 | 0.01 | 0.54 | 0.51 | 77 | 1009.8 |
| 20260506183917 | 45 | 180 | 1.0 | 4.0 | 0.01 | 0.54 | 0.51 | 77 | 1009.9 |
| 20260506182917 | 45 | 90 | 1.0 | 3.0 | 0.02 | 0.54 | 0.51 | 77 | 1010.1 |
| 20260506181917 | 45 | 113 | 1.0 | 2.0 | 0.02 | 0.54 | 0.51 | 77 | 1010.1 |
| 20260506180938 | 45 | 315 | 3.0 | 6.0 | 0.04 | 0.54 | 0.51 | 78 | 1010.2 |
| 20260506175917 | 44 | 338 | 3.0 | 5.0 | 0.05 | 0.54 | 0.51 | 77 | 1010.3 |
| 20260506174917 | 44 | 315 | 3.0 | 6.0 | 0.05 | 0.57 | 0.50 | 77 | 1010.3 |
| 20260506173917 | 44 | 158 | 2.0 | 3.0 | 0.07 | 0.67 | 0.50 | 77 | 1010.5 |
| 20260506172917 | 44 | 113 | 1.0 | 2.0 | 0.08 | 0.67 | 0.49 | 77 | 1010.7 |
| 20260506171917 | 44 | 0.0 | 1.0 | 0.10 | 0.69 | 0.49 | 77 | 1010.6 | |
| 20260506170917 | 44 | 0.0 | 1.0 | 0.09 | 0.68 | 0.47 | 77 | 1010.7 | |
| 20260506165917 | 44 | 225 | 1.0 | 3.0 | 0.10 | 0.67 | 0.46 | 77 | 1010.7 |
| 20260506164917 | 44 | 90 | 3.0 | 7.0 | 0.10 | 0.66 | 0.45 | 77 | 1010.5 |
| 20260506163917 | 44 | 45 | 2.0 | 3.0 | 0.10 | 0.64 | 0.43 | 77 | 1010.8 |
| 20260506162917 | 44 | 248 | 2.0 | 5.0 | 0.10 | 0.62 | 0.41 | 77 | 1010.9 |
| 20260506161937 | 44 | 23 | 1.0 | 3.0 | 0.10 | 0.60 | 0.39 | 77 | 1010.9 |
| 20260506160917 | 44 | 0.0 | 1.0 | 0.10 | 0.59 | 0.38 | 77 | 1010.9 | |
| 20260506155917 | 43 | 45 | 1.0 | 3.0 | 0.10 | 0.57 | 0.36 | 77 | 1011.0 |
| 20260506154917 | 43 | 338 | 2.0 | 4.0 | 0.11 | 0.56 | 0.35 | 76 | 1011.1 |
| 20260506153917 | 43 | 180 | 2.0 | 6.0 | 0.10 | 0.54 | 0.33 | 76 | 1011.3 |
| 20260506152917 | 43 | 338 | 2.0 | 4.0 | 0.10 | 0.52 | 0.31 | 76 | 1011.5 |
| 20260506151917 | 43 | 338 | 2.0 | 3.0 | 0.09 | 0.50 | 0.29 | 76 | 1011.6 |
| 20260506150917 | 43 | 180 | 1.0 | 2.0 | 0.09 | 0.49 | 0.28 | 75 | 1011.5 |
| 20260506145917 | 43 | 0.0 | 0.0 | 0.08 | 0.47 | 0.26 | 75 | 1011.3 | |
| 20260506144917 | 43 | 135 | 2.0 | 6.0 | 0.07 | 0.45 | 0.24 | 74 | 1011.1 |
| 20260506143917 | 44 | 338 | 3.0 | 7.0 | 0.07 | 0.44 | 0.23 | 74 | 1011.2 |
| 20260506143018 | 44 | 0 | 2.0 | 4.0 | 0.05 | 0.42 | 0.21 | 74 | 1011.4 |
| 20260506141917 | 44 | 315 | 3.0 | 5.0 | 0.05 | 0.41 | 0.20 | 73 | 1011.3 |
| 20260506140917 | 43 | 338 | 4.0 | 6.0 | 0.05 | 0.40 | 0.19 | 73 | 1011.4 |
| 20260506135937 | 44 | 315 | 4.0 | 6.0 | 0.05 | 0.39 | 0.18 | 72 | 1011.2 |
| 20260506134917 | 44 | 0 | 3.0 | 5.0 | 0.06 | 0.38 | 0.17 | 72 | 1011.5 |
| 20260506133918 | 44 | 90 | 3.0 | 5.0 | 0.06 | 0.37 | 0.16 | 71 | 1011.2 |
| 20260506132917 | 44 | 338 | 2.0 | 4.0 | 0.07 | 0.37 | 0.16 | 71 | 1011.1 |
| 20260506131938 | 44 | 338 | 3.0 | 6.0 | 0.07 | 0.36 | 0.15 | 71 | 1011.3 |
| 20260506130917 | 44 | 180 | 1.0 | 3.0 | 0.07 | 0.35 | 0.14 | 70 | 1011.5 |
| 20260506125916 | 44 | 338 | 1.0 | 3.0 | 0.07 | 0.34 | 0.13 | 70 | 1011.5 |
| 20260506124937 | 44 | 0.0 | 1.0 | 0.05 | 0.32 | 0.11 | 69 | 1011.6 | |
| 20260506123917 | 44 | 68 | 3.0 | 5.0 | 0.05 | 0.31 | 0.10 | 69 | 1011.6 |
| 20260506122917 | 45 | 0.0 | 1.0 | 0.05 | 0.30 | 0.09 | 69 | 1011.8 | |
| 20260506121936 | 45 | 338 | 1.0 | 3.0 | 0.04 | 0.29 | 0.08 | 69 | 1011.5 |
| 20260506120916 | 45 | 0.0 | 1.0 | 0.04 | 0.28 | 0.07 | 68 | 1011.8 | |
| 20260506115916 | 45 | 90 | 1.0 | 1.0 | 0.03 | 0.27 | 0.06 | 68 | 1012.0 |
| 20260506114917 | 45 | 203 | 1.0 | 2.0 | 0.03 | 0.27 | 0.06 | 68 | 1012.2 |
| 20260506113917 | 45 | 0.0 | 0.0 | 0.03 | 0.26 | 0.05 | 67 | 1012.1 | |
| 20260506112937 | 46 | 0.0 | 0.0 | 0.02 | 0.25 | 0.04 | 67 | 1011.8 | |
| 20260506111916 | 46 | 0.0 | 0.0 | 0.02 | 0.25 | 0.04 | 66 | 1011.5 | |
| 20260506110916 | 47 | 0.0 | 1.0 | 0.02 | 0.24 | 0.03 | 67 | 1011.5 | |
| 20260506105917 | 47 | 180 | 1.0 | 1.0 | 0.02 | 0.24 | 0.03 | 68 | 1011.4 |
| 20260506104916 | 47 | 0.0 | 0.0 | 0.02 | 0.24 | 0.03 | 68 | 1011.4 | |
| 20260506103917 | 47 | 0.0 | 0.0 | 0.01 | 0.23 | 0.02 | 66 | 1011.5 | |
| 20260506102916 | 47 | 0.0 | 0.0 | 0.01 | 0.23 | 0.02 | 66 | 1011.4 | |
| 20260506101936 | 48 | 0.0 | 0.0 | 0.01 | 0.23 | 0.02 | 65 | 1011.2 | |
| 20260506100936 | 48 | 180 | 2.0 | 3.0 | 0.00 | 0.22 | 0.01 | 65 | 1010.9 |
| 20260506095916 | 48 | 0.0 | 0.0 | 0.01 | 0.22 | 0.01 | 63 | 1011.5 | |
| 20260506094916 | 47 | 0.0 | 3.0 | 0.01 | 0.22 | 0.01 | 64 | 1011.2 | |
| 20260506093916 | 47 | 45 | 2.0 | 3.0 | 0.01 | 0.22 | 0.01 | 65 | 1011.1 |
| 20260506092916 | 47 | 90 | 1.0 | 3.0 | 0.01 | 0.22 | 0.01 | 66 | 1011.4 |
| 20260506091916 | 48 | 0.0 | 0.0 | 0.01 | 0.22 | 0.01 | 66 | 1011.4 | |
| 20260506090916 | 48 | 315 | 1.0 | 2.0 | 0.01 | 0.22 | 0.01 | 64 | 1011.5 |
| 20260506085917 | 49 | 0.0 | 0.0 | 0.00 | 0.21 | 0.00 | 61 | 1012.1 | |
| 20260506084916 | 49 | 0.0 | 0.0 | 0.00 | 0.21 | 0.00 | 61 | 1011.2 | |
| 20260506083916 | 50 | 0.0 | 1.0 | 0.00 | 0.21 | 0.00 | 61 | 1011.6 | |
| 20260506082936 | 50 | 90 | 3.0 | 3.0 | 0.00 | 0.21 | 0.00 | 60 | 1011.3 |
| 20260506081916 | 50 | 90 | 1.0 | 4.0 | 0.00 | 0.21 | 0.00 | 59 | 1011.3 |
| 20260506080917 | 51 | 0.0 | 1.0 | 0.00 | 0.21 | 0.00 | 59 | 1011.5 | |
| 20260506072936 | 52 | 0.0 | 1.0 | 0.00 | 0.21 | 0.00 | 56 | 1011.0 | |
| 20260506071916 | 52 | 180 | 3.0 | 6.0 | 0.00 | 0.21 | 0.00 | 56 | 1011.0 |
| 20260506070916 | 52 | 203 | 4.0 | 5.0 | 0.00 | 0.21 | 0.00 | 57 | 1011.2 |
| 20260506061916 | 53 | 180 | 1.0 | 2.0 | 0.00 | 0.21 | 0.00 | 59 | 1011.2 |
| 20260506060936 | 54 | 0.0 | 1.0 | 0.00 | 0.21 | 0.00 | 59 | 1011.2 | |
| 20260506050916 | 54 | 225 | 8.0 | 12.0 | 0.00 | 0.21 | 0.00 | 62 | 1011.3 |
| 20260506044956 | 55 | 225 | 6.0 | 10.0 | 0.00 | 0.21 | 0.00 | 60 | 1011.0 |
| 20260506043916 | 55 | 225 | 5.0 | 9.0 | 0.00 | 0.21 | 0.00 | 60 | 1010.6 |
| 20260506042916 | 56 | 225 | 7.0 | 11.0 | 0.00 | 0.21 | 0.00 | 60 | 1010.7 |
| 20260506041917 | 56 | 225 | 4.0 | 12.0 | 0.00 | 0.21 | 0.00 | 60 | 1010.5 |
| 20260506040916 | 57 | 203 | 3.0 | 5.0 | 0.00 | 0.21 | 0.00 | 59 | 1010.5 |
| 20260506035915 | 57 | 203 | 5.0 | 8.0 | 0.00 | 0.21 | 0.21 | 58 | 1010.4 |
| 20260506034916 | 57 | 225 | 5.0 | 7.0 | 0.00 | 0.21 | 0.21 | 58 | 1010.2 |
| 20260506033936 | 57 | 225 | 5.0 | 7.0 | 0.00 | 0.21 | 0.21 | 58 | 1009.9 |
| 20260506032916 | 57 | 203 | 2.0 | 2.0 | 0.00 | 0.21 | 0.21 | 57 | 1010.0 |
| 20260506031916 | 58 | 0.0 | 0.0 | 0.00 | 0.21 | 0.21 | 55 | 1010.1 | |
| 20260506030916 | 59 | 203 | 6.0 | 9.0 | 0.00 | 0.21 | 0.21 | 54 | 1009.8 |
| 20260506025936 | 59 | 225 | 8.0 | 13.0 | 0.00 | 0.21 | 0.21 | 53 | 1009.3 |
| 20260506024916 | 60 | 225 | 8.0 | 10.0 | 0.00 | 0.21 | 0.21 | 52 | 1009.2 |
| 20260506023916 | 60 | 203 | 9.0 | 13.0 | 0.00 | 0.21 | 0.21 | 51 | 1009.4 |
| 20260506022917 | 60 | 180 | 8.0 | 13.0 | 0.00 | 0.21 | 0.21 | 50 | 1009.5 |
| 20260506021916 | 61 | 203 | 9.0 | 13.0 | 0.00 | 0.21 | 0.21 | 49 | 1009.3 |
| 20260506020935 | 61 | 225 | 10.0 | 18.0 | 0.00 | 0.21 | 0.21 | 48 | 1009.0 |
| 20260506015916 | 62 | 225 | 10.0 | 13.0 | 0.00 | 0.21 | 0.21 | 46 | 1009.1 |
| 20260506014916 | 62 | 203 | 5.0 | 7.0 | 0.00 | 0.21 | 0.21 | 48 | 1009.0 |
| 20260506013915 | 62 | 225 | 5.0 | 7.0 | 0.00 | 0.21 | 0.21 | 47 | 1009.2 |
| 20260506012915 | 62 | 225 | 4.0 | 7.0 | 0.00 | 0.21 | 0.21 | 48 | 1008.6 |
| 20260506011915 | 62 | 203 | 7.0 | 12.0 | 0.00 | 0.21 | 0.21 | 52 | 1008.4 |
| 20260506010915 | 64 | 225 | 6.0 | 9.0 | 0.00 | 0.21 | 0.21 | 53 | 1008.1 |
| 20260506005915 | 66 | 180 | 1.0 | 2.0 | 0.00 | 0.21 | 0.21 | 52 | 1007.7 |
| 20260506004917 | 66 | 225 | 8.0 | 12.0 | 0.00 | 0.21 | 0.21 | 50 | 1007.3 |
| 20260506003915 | 67 | 203 | 7.0 | 9.0 | 0.00 | 0.21 | 0.21 | 51 | 1007.1 |
| 20260506002935 | 67 | 158 | 7.0 | 12.0 | 0.00 | 0.21 | 0.21 | 51 | 1006.8 |
| 20260506001915 | 67 | 180 | 5.0 | 8.0 | 0.00 | 0.21 | 0.21 | 50 | 1006.6 |
| 20260506000915 | 67 | 180 | 7.0 | 13.0 | 0.00 | 0.21 | 0.21 | 50 | 1006.4 |
| 20260505235935 | 66 | 180 | 4.0 | 6.0 | 0.00 | 0.21 | 0.21 | 53 | 1006.4 |
| 20260505234915 | 66 | 113 | 1.0 | 3.0 | 0.00 | 0.21 | 0.21 | 54 | 1006.2 |
| 20260505233935 | 66 | 158 | 1.0 | 2.0 | 0.00 | 0.21 | 0.21 | 53 | 1006.3 |
| 20260505232916 | 67 | 0.0 | 1.0 | 0.00 | 0.21 | 0.21 | 52 | 1006.2 | |
| 20260505231915 | 67 | 158 | 3.0 | 5.0 | 0.00 | 0.21 | 0.21 | 51 | 1006.2 |